Home > Weather > Luhansk > Past weeks

Flag for Ukraine Weather for the Past 2 Weeks in Luhansk, Ukraine

Now
34 °F

Passing clouds.


Feels Like: 24 °F
Forecast: 32 / 42 °F
Wind: 15 mph from East

Location: Rostov-Na-Donu

Current Time: Feb 11, 2016 at 3:46:29 AM

Latest Report: Feb 11, 2016 at 2:30 AM


Visibility: N/A

Pressure: 30.12 "Hg

Humidity: 87%

Dew point: 30 °F

Location of LuhanskLocation

Historic Weather in Luhansk — Graph

°F

Luhansk Temperature Yesterday

Maximum temperature yesterday: 36 °F (at 1:30 PM)
Minimum temperature yesterday: 25 °F (at 6:30 AM)
Average temperature yesterday: 31 °F

High & Low Weather Summary for the Past Weeks

 TemperatureHumidityPressure
High54 °F (Feb 4, 4:30 PM)100% (Jan 27, 10:00 PM)30.54 "Hg (Jan 27, 10:00 PM)
Low3 °F (Jan 27, 3:00 AM)58% (Feb 4, 1:00 PM)29.77 "Hg (Feb 4, 8:30 PM)
Average34 °F86%30.14 "Hg
* Reported Jan 27 2:00 AM — Feb 11 2:00 AM, Luhansk, Weather by CustomWeather, © 2016

Note: Actual official high and low records may vary slightly from our data, if they occured in-between our weather recording intervals... More about our weather records

Advertising

Luhansk Weather History for the Previous 24 Hours

 ConditionsComfort  
Time TempWeatherWind HumidityBarometerVisibility
2:00 AM
Thu, Feb 11
32 °FClear.15 mph87%30.15 "HgN/A
1:30 AM32 °FClear.15 mph87%30.12 "HgN/A
12:30 AM32 °FClear.17 mph93%30.15 "HgN/A
12:00 AM32 °FClear.17 mph93%30.15 "HgN/A
11:30 PM
Wed, Feb 10
34 °FClear.17 mph87%30.15 "HgN/A
11:00 PM34 °FClear.17 mph87%30.15 "HgN/A
10:30 PM34 °FClear.17 mph87%30.15 "HgN/A
10:00 PM34 °FClear.17 mph87%30.18 "HgN/A
9:30 PM34 °FPartly cloudy.17 mph87%30.18 "HgN/A
9:00 PM36 °FPassing clouds.15 mph81%30.18 "HgN/A
8:30 PM36 °FPassing clouds.15 mph81%30.21 "HgN/A
8:00 PM34 °FPassing clouds.15 mph87%30.21 "HgN/A
7:30 PM34 °FPassing clouds.15 mph87%30.24 "HgN/A
7:00 PM34 °FPassing clouds.15 mph81%30.24 "HgN/A
6:30 PM34 °FPartly sunny.15 mph81%30.24 "HgN/A
6:00 PM34 °FPartly sunny.15 mph81%30.24 "HgN/A
5:30 PM34 °FPartly sunny.15 mph81%30.24 "HgN/A
5:00 PM34 °FPartly sunny.15 mph81%30.24 "HgN/A
4:30 PM34 °FPartly sunny.15 mph81%30.24 "HgN/A
4:00 PM34 °FPartly sunny.17 mph81%30.24 "HgN/A
3:30 PM34 °FPartly sunny.15 mph81%30.24 "HgN/A
3:00 PM36 °FPartly sunny.17 mph75%30.24 "HgN/A
2:30 PM36 °FScattered clouds.17 mph75%30.24 "HgN/A
2:00 PM36 °FScattered clouds.17 mph75%30.24 "HgN/A
1:30 PM36 °FScattered clouds.17 mph75%30.24 "HgN/A
1:00 PM34 °FScattered clouds.17 mph75%30.27 "HgN/A
12:30 PM34 °FScattered clouds.17 mph81%30.27 "HgN/A
12:00 PM34 °FScattered clouds.17 mph75%30.27 "HgN/A
11:30 AM32 °FScattered clouds.15 mph80%30.27 "HgN/A
11:00 AM30 °FPartly sunny.17 mph86%30.27 "HgN/A
10:30 AM30 °FPartly sunny.17 mph86%30.30 "HgN/A
10:00 AM28 °FPartly sunny.17 mph93%30.30 "HgN/A
9:30 AM28 °FScattered clouds.15 mph86%30.30 "HgN/A
9:00 AM27 °FScattered clouds.13 mph93%30.30 "HgN/A
8:30 AM25 °FPassing clouds.10 mph93%30.30 "HgN/A
8:00 AM25 °FPassing clouds.13 mph93%30.30 "HgN/A
7:00 AM25 °FPassing clouds.13 mph93%30.30 "HgN/A
6:30 AM25 °FPassing clouds.10 mph93%30.30 "HgN/A
6:00 AM27 °FClear.10 mph93%30.30 "HgN/A
5:30 AM27 °FClear.10 mph93%30.30 "HgN/A
5:00 AM27 °FClear.10 mph93%30.30 "HgN/A
4:30 AM27 °FClear.8 mph93%30.30 "HgN/A
3:30 AM27 °FClear.10 mph93%30.30 "HgN/A
3:00 AM27 °FClear.6 mph86%30.30 "HgN/A
Weather by CustomWeather, © 2016

See weather overviewHow to use our weather pages